Regional Weather Roundup
Issued by NWS

Home | Current Version | Previous Version | Text Only | Print | Product List | Glossary Off
Versions: 1 2 3 4 5 6 7 8 9 10 11 12 13 14 15 16 17 18 19 20 21 22 23 24 25 26 27 28 29 30 31 32 33 34 35 36 37 38 39 40 41 42 43 44 45 46 47 48 49 50

000
ASUS43 KLOT 220908
RWRIL

ILLINOIS REGIONAL WEATHER ROUNDUP
NATIONAL WEATHER SERVICE CHICAGO/ROMEOVILLE IL
400 AM CDT TUE AUG 22 2017

NOTE: "FAIR" INDICATES FEW OR NO CLOUDS BELOW 12,000 FEET WITH NO
SIGNIFICANT WEATHER AND/OR OBSTRUCTIONS TO VISIBILITY.

* THESE STATIONS ARE NOT UNDER NWS QUALITY CONTROL. THEY ALSO MAY NOT
  REPORT WEATHER SUCH AS PRECIPITATION OR FOG.

ILZ001-002-007-009-015-016-024-221000-
NORTHWEST ILLINOIS

CITY           SKY/WX    TMP DP  RH WIND       PRES   REMARKS
MOLINE         CLOUDY    70  66  87 S12       29.84F
STERLING*      LGT RAIN  69  66  90 W8        29.89S
SAVANNA*       CLOUDY    69  65  87 NW7       29.87F
$$

ILZ003-004-008-010-011-017-018-221000-
NORTH CENTRAL ILLINOIS

CITY           SKY/WX    TMP DP  RH WIND       PRES   REMARKS
ROCKFORD       CLOUDY    71  66  84 W12       29.89F
FREEPORT*      CLOUDY    67  65  92 W9        29.91S
ROCHELLE*      CLOUDY    70  68  93 W10       29.90R
DE KALB*       RAIN      71  69  93 W10G17    29.90R
PERU*          LGT RAIN  69  66  93 SW10      29.90F
$$

ILZ005-006-012>014-019>023-221000-
NORTHEAST ILLINOIS

CITY           SKY/WX    TMP DP  RH WIND       PRES   REMARKS
CHICAGO-OHARE  CLOUDY    75  69  81 SW14G22   29.87R
CHICAGO-MIDWAY CLOUDY    73  70  90 SW12      29.88R
AURORA         LGT RAIN  72  71  97 SW12      29.89S
LANSING*       LGT RAIN  70  67  88 SW10      29.91R
JOLIET*        RAIN      73  72  95 SW13      29.90S
WAUKEGAN       CLOUDY    74  70  87 VRB6      29.83F
DUPAGE AIRPORT LGT RAIN  73  72  96 SW14G24   29.88R
WHEELING       CLOUDY    75  72  90 SW10      29.87S
MORRIS*        RAIN      71  68  89 W8        29.88F
ROMEOVILLE*    RAIN      71  68  90 W12G18    29.89S
NORTHERLY ISL    N/A     73  67  81 S5          N/A
$$

LMZ740>746-221000-
SOUTHERN LAKE MICHIGAN

STATION/POSITION SKY/WX   TEMP    WIND        PRES    VSBY  WAVE
                          AIR SEA DIR/SP/G                  HT/PER
                          (F)     (DEG/KT/KT) (MB)    (MI)  (FT/S)
SOUTHERN BUOY              73 72  240/ 16/ 19 1009.2F         4/ 5
WILMETTE HARBOR            75 74  230/ 16/ 23   N/A           2/ 3
HARRISON CRIB              75     220/ 20/ 24   N/A
CALUMET HARBOR             72     210/ 12/ 15 1011.2R
BURNS HARBOR               72     200/ 16/ 21 1012.2R
MICHIGAN CITY              71     180/ 14/ 15   N/A
MICHIGAN CITY 6N           73 74  210/ 17/ 23   N/A           3/ 4
ST. JOSEPH                 73 73  220/ 17/ 21 1011.2          4/ 4
$$

ILZ025>027-034>036-040-047-049-050-058-095>099-221000-
WEST-CENTRAL ILLINOIS

CITY           SKY/WX    TMP DP  RH WIND       PRES   REMARKS
QUINCY         RAIN      68  66  93 CALM      29.98F FOG
GALESBURG*     CLOUDY    68  67  96 SW9       29.93F
MACOMB*        LGT RAIN  67  67  98 W5        29.96F
JACKSONVILLE*  RAIN      68  67  98 W6        29.96F
PITTSFIELD*    RAIN      68  68  99 W3        29.99F
$$

ILZ028>032-037-038-041>044-048-051>054-059>061-221000-
CENTRAL ILLINOIS

CITY           SKY/WX    TMP DP  RH WIND       PRES   REMARKS
PONTIAC        LGT RAIN  71  71  99 W6        29.92F
BLOOMINGTON    LGT RAIN  69  67  93 W8        29.95S
DECATUR        TSTM      71  68  90 NW13G25   29.95R
PEORIA         LGT RAIN  70  69  97 SW8       29.92F
LACON*         RAIN      69  69  98 SW5       29.90F
LINCOLN*       RAIN      69  69 100 W3        29.95R
SPRINGFIELD    HVY RAIN  71  71 100 NW8       29.97R FOG
TAYLORVILLE    TSTM      71  70  98 NW7       29.96R
$$

ILZ033-039-045-046-055>057-062-063-221000-
EAST-CENTRAL ILLINOIS

CITY           SKY/WX    TMP DP  RH WIND       PRES   REMARKS
CHAMPAIGN      CLOUDY    74  69  85 CALM      29.93F
RANTOUL*       RAIN      72  71  95 NW6       29.93F
MATTOON        CLOUDY    74  73  97 S8        29.91F
PARIS*         CLOUDY    76  72  88 SW9G16    29.93F
$$

ILZ079-100>102-221000-
SOUTHWEST ILLINOIS

CITY           SKY/WX    TMP DP  RH WIND       PRES   REMARKS
ALTON          CLOUDY    76  70  81 NW16G28   29.94R
BELLEVILLE     CLOUDY    79  74  84 W7        29.93F HX  82
CAHOKIA*       MOCLDY    81  73  76 SW8G17    29.92F HX  86
SPARTA*        CLOUDY    77  73  86 SW6       29.96F
$$

ILZ064>066-069>071-074>076-080>082-084>086-088>090-092>094-221000-
SOUTH-CENTRAL ILLINOIS

CITY           SKY/WX    TMP DP  RH WIND       PRES   REMARKS
CARBONDALE     MOCLDY    77  75  93 SW8       29.97S
CAIRO*         PTCLDY    78  75  90 SW8       29.99F HX  80
EFFINGHAM*     PTCLDY    76  74  93 S7        29.95F
MARION         CLOUDY    77  77 100 S7        29.98F
MT. VERNON       N/A     73  71  93 SW6       29.96F
CENTRALIA*     CLOUDY    76  74  95 S9        29.94F
SALEM*         CLOUDY    77  73  86 SW8       29.94F
METROPOLIS*    CLEAR     79  75  87 SW7       30.00S HX  82
$$

ILZ067-068-072-073-078-083-087-091-221000-
SOUTHEAST ILLINOIS

CITY           SKY/WX    TMP DP  RH WIND       PRES   REMARKS
LAWRENCEVILLE  CLOUDY    75  73  93 S6        29.96F
FLORA*         CLOUDY    74  72  93 SW7       29.95F
FAIRFIELD*     CLOUDY    73  72  99 S3        29.94F
HARRISBURG*    MOCLDY    75  74  94 SW5       29.97F
ROBINSON*      CLOUDY    74  73  95 SW9       29.95F
CARMI*         PTCLDY    74  73  98 S6        29.96F
$$

ABBREVIATIONS USED IN REMARKS
   TC - TEMPERATURE IN CELSIUS
  WCI - WIND CHILL INDEX
   HX - HEAT INDEX
  VSB - VISIBILITY
$$




USA.gov is the U.S. government's official web portal to all federal, state and local government web resources and services.